Tracking 18852 objects as of 23-Nov-2017
HD Live streaming from Space Station
objects crossing your sky now

FENGYUN 1C DEB

Track FENGYUN 1C DEB now!
10-day predictions


NORAD ID: 30633
Int'l Code: 1999-025ANQ
Perigee: 810.2 km
Apogee: 1,016.0 km
Inclination: 98.4 °
Period: 103.1 minutes
Semi major axis: 7284 km
RCS: 0.025 m2 (small)
Launch date: May 10, 1999
Source: People's Republic of China (PRC)
Launch site: Taiyaun Space Center, China (TSC)

Note: This is SATELLITE DEBRIS
aabbcc
Your satellite tracking list
Your tracking list is empty




NASA's NSSDC Master Catalog

Two Line Element Set (TLE):
1 30633U 99025ANQ 17326.74395300  .00000638  00000-0  45061-3 0  9996
2 30633  98.4387  22.3083 0141266 231.7421 253.7855 13.96505317549120
Source of the keplerian elements: AFSPC